Location: Bletchingley
(51.2333°N, 0.1000°W)
Time: 03:07:17
(UTC+00:00)

ARIANE 5 R/B - Pass Details

Date: 18 September 2020
Orbit: 620 x 657 km, 98.2° (Epoch: 09 October)

Event Time Altitude Azimuth Distance (km) Brightness Sun altitude
Exits shadow 21:15:16 51° 278° (W) 793 3.3 -27.5°
Drops below altitude 10° 21:19:11 10° 337° (NNW) 2,003 6.0 -28.0°
Sets 21:21:26 0° 342° (NNW) 2,913 7.0 -28.2°
